Location: Newark
(0.5300°S, 127.4800°E)
Time: 04:17:11
(UTC+00:00)

A-11 Canister half - Pass Details

Date: 20 September 2019
Orbit: 1514 x 1686 km, 47.2° (Epoch: 14 October)

Event Time Altitude Azimuth Distance (km) Brightness Sun altitude
Rises 09:39:18 0° 332° (NNW) 4,706 12.0 -3.9°
Reaches altitude 10° 09:42:28 10° 337° (NNW) 3,745 11.4 -4.7°
Maximum altitude 09:51:37 51° 51° (NE) 1,947 9.3 -7.0°
Drops below altitude 10° 10:01:05 10° 124° (ESE) 3,887 10.6 -9.4°
Enters shadow 10:04:01 - 128° (SE) 4,778 11.1 -10.1°
Sets 10:04:24 0° 128° (SE) 4,895 - -10.2°
